Home   Weather   Guilin   Past weeks

Flag for China Past Weather in Guilin, Guangxi, China — Yesterday and Last 2 Weeks

Now
61 °F

Overcast.


Feels Like: 61 °F
Forecast: 45 / 67 °F
Wind: 3 mph from Northwest

Location: Guilin Airport

Current Time: Jan 24, 2017 at 7:40:55 pm

Latest Report: Jan 24, 2017 at 7:00 pm


Visibility: 4 mi

Pressure: 30.27 "Hg

Humidity: 68%

Dew Point: 50 °F

Location of GuilinLocation

Past Weather in Guilin — Graph

°F

Guilin Temperature Yesterday

Maximum temperature yesterday: 66 °F (at 3:00 pm)
Minimum temperature yesterday: 43 °F (at 12:00 am)
Average temperature yesterday: 52 °F

High & Low Weather Summary for the Past Weeks

 TemperatureHumidityPressure
High66 °F (Jan 23, 3:00 pm)100% (Jan 11, 2:00 am)30.48 "Hg (Jan 11, 2:00 am)
Low34 °F (Jan 22, 7:00 am)22% (Jan 22, 3:00 pm)30.04 "Hg (Jan 9, 6:00 pm)
Average49 °F77%30.25 "Hg
* Reported Jan 9 6:00 pm — Jan 24 6:00 pm, Guilin, Weather by CustomWeather, © 2017

Note: Actual official high and low records may vary slightly from our data, if they occured in-between our weather recording intervals... More about our weather records

Advertising

Guilin Weather History for the Previous 24 Hours

Scroll right to see more
 ConditionsComfort  
Time TempWeatherWind HumidityBarometerVisibility
6:00 pm
Tue, Jan 24
63 °FClear.1 mph45%30.24 "Hg5 mi
5:00 pm66 °FClear.3 mph37%30.21 "Hg5 mi
4:00 pm66 °FPartly sunny.3 mph40%30.21 "Hg5 mi
3:00 pm66 °FClear.1 mph37%30.21 "Hg5 mi
2:00 pm66 °FClear.3 mph35%30.24 "Hg5 mi
1:00 pm64 °FClear.3 mph34%30.27 "Hg5 mi
12:00 pm63 °FClear.3 mph34%30.33 "Hg5 mi
11:00 am59 °FClear.1 mph42%30.36 "Hg5 mi
10:00 am55 °FClear.3 mph59%30.36 "Hg5 mi
9:00 am50 °FClear.1 mph82%30.33 "Hg5 mi
8:00 am46 °FFog.No wind93%30.33 "Hg3 mi
7:00 am46 °FFog.1 mph87%30.33 "Hg3 mi
6:00 am46 °FFog.No wind87%30.30 "Hg3 mi
5:00 am46 °FFog.1 mph87%30.30 "Hg3 mi
4:00 am45 °FFog.1 mph93%30.30 "Hg3 mi
3:00 am45 °FFog.1 mph87%30.30 "Hg3 mi
2:00 am45 °FFog.No wind87%30.33 "Hg3 mi
1:00 am43 °FFog.1 mph93%30.33 "Hg3 mi
12:00 am43 °FFog.1 mph87%30.33 "Hg3 mi
11:00 pm
Mon, Jan 23
46 °FFog.1 mph82%30.33 "Hg3 mi
10:00 pm48 °FClear.1 mph76%30.30 "Hg4 mi
9:00 pm50 °FClear.6 mph67%30.30 "Hg5 mi
8:00 pm52 °FClear.6 mph58%30.27 "Hg5 mi
7:00 pm57 °FClear.6 mph48%30.24 "Hg10 mi
Weather by CustomWeather, © 2017

See weather overviewHow to use our weather pages